Regional Weather Roundup
Issued by NWS

Home | Current Version | Previous Version | Graphics & Text | Print | Product List | Glossary On
Versions: 1 2 3 4 5 6 7 8 9 10 11 12 13 14 15 16 17 18 19 20 21 22 23 24 25 26 27
000
ASUS45 KCYS 280810
RWRWY

WYOMING REGIONAL WEATHER ROUNDUP
NATIONAL WEATHER SERVICE CHEYENNE WY
200 AM MDT TUE MAR 28 2017

NOTE:  "FAIR" INDICATES FEW OR NO CLOUDS BELOW 12,000 FEET
WITH NO SIGNIFICANT WEATHER AND/OR OBSTRUCTIONS TO VISIBILITY.

WYZ001-280900-
YELLOWSTONE NATIONAL PARK

CITY           SKY/WX    TMP DP  RH WIND       PRES   REMARKS
LK YELLOWSTONE   N/A     28  25  88 CALM      30.04S
W YELLOWSTONE  NOT AVBL

$$
WYZ002>013-054>058-071-098>099-280900-
NORTHERN WYOMING

CITY           SKY/WX    TMP DP  RH WIND       PRES   REMARKS
JACKSON        MOCLDY    34  30  86 E5        30.01S WCI  30
CODY           LGT RAIN  38  33  82 N8        30.02R WCI  32
GREYBULL       FAIR      44  35  70 NW24G31   29.92R
WORLAND        CLOUDY    45  37  73 NW16      29.94R
SHERIDAN       CLOUDY    45  37  73 NW12      29.95R
BUFFALO        CLOUDY    45  34  65 W6        29.95S
GILLETTE       CLOUDY    45  36  70 CALM      29.93R
HULETT         PTSUNNY   43  34  70 CALM      29.94S
NEWCASTLE      FAIR      45  32  61 W6        29.91S

$$
WYZ014>020-022>026-101>103-280900-
CENTRAL WYOMING

CITY           SKY/WX    TMP DP  RH WIND       PRES   REMARKS
BIG PINEY      CLOUDY    34  26  72 N16       29.95S WCI  24
PINEDALE       PTSUNNY   32  28  86 NW14G20   29.95R WCI  22
DUBOIS         LGT SNOW  32  30  93 NW6       29.97R WCI  26
LANDER         LGT RAIN  36  34  92 W6        29.95R WCI  31
RIVERTON       LGT RAIN  39  36  89 N10       29.94S WCI  32
CASPER         MOCLDY    41  33  73 NW5       29.90R
DOUGLAS        LGT RAIN  42  39  89 S10       29.92R

$$
WYZ021-027>030-104>119-280900-
SOUTHERN WYOMING

CITY           SKY/WX    TMP DP  RH WIND       PRES   REMARKS
EVANSTON       CLOUDY    31  28  89 N18       29.98S WCI  19
KEMMERER         N/A     32  28  86 NW15      29.96S WCI  22
FORT BRIDGER   CLOUDY    33  33 100 NW10      30.00R WCI  25
ROCK SPRINGS   CLOUDY    36  33  89 N7        29.92R WCI  30
DIXON            N/A     37  34  89 CALM      29.88S
RAWLINS        CLOUDY    36  33  89 E7        29.90S WCI  30
SARATOGA       PTSUNNY   34  34 100 CALM      29.89F
LARAMIE        CLOUDY    34  33  96 NW8       29.88S WCI  27
CHEYENNE       CLOUDY    41  39  93 N8        29.87S
TORRINGTON     CLOUDY    44  43  96 W8        29.89R
PINE BLUFFS    CLOUDY    43  43 100 NE6       29.87S

$$




USA.gov is the U.S. government's official web portal to all federal, state and local government web resources and services.